Location: Lecco
(45.8566°N, 9.3977°E)
Time: 08:36:17
(UTC+02:00)

Altair - Pass Details

Date: 20 August 2020
Orbit: 1501 x 1682 km, 47.2° (Epoch: 25 September)

Event Time Altitude Azimuth Distance (km) Brightness Sun altitude
Rises 02:53:20 0° 253° (WSW) 4,851 - -28.6°
Reaches altitude 10° 02:56:29 10° 253° (WSW) 3,842 - -28.3°
Exits shadow 03:01:32 36° 254° (WSW) 2,338 8.1 -27.9°
Maximum altitude 03:06:18 89° 168° (SSE) 1,577 7.4 -27.6°
Drops below altitude 10° 03:15:43 10° 77° (ENE) 3,706 10.0 -26.8°
Sets 03:18:43 0° 78° (ENE) 4,672 10.6 -26.5°
